Location: Eulenhof
(48.9478°N, 10.8931°E)
Time: 08:23:57
(UTC+00:00)

Daily predictions for brighter satellites

Satellite Brightness Start Highest point End
(mag) Time Altitude Azimuth Time Altitude Azimuth Time Altitude Azimuth
Meteor 2-4 Rocket 3.6 19:42:41 10° S 19:48:02 83° E 19:53:26 10° NNE
NOSS 3-1 (A) 4.5 19:43:48 10° WSW 19:49:21 52° NW 19:55:54 10° NE
NOSS 2-2 (E) 4.4 19:46:57 10° SSE 19:49:42 21° ESE 19:52:41 10° ENE
STARLINK-1125 4.3 19:46:06 10° WNW 19:50:04 45° SW 19:54:01 10° SE
EXPRESS MD2 4.0 19:47:54 10° SSW 19:50:34 29° SE 19:54:59 10° ENE
STARLINK-1254 4.4 19:47:19 10° W 19:51:24 55° NNW 19:55:29 10° ENE
STARLINK-1098 3.8 19:48:17 10° WNW 19:52:26 73° NNE 19:56:35 10° ESE
Cosmos 1833 Rocket 3.4 19:47:17 10° NW 19:52:43 52° WSW 19:58:08 10° S
Cosmos 2297 4.3 19:49:29 10° S 19:54:39 37° ESE 19:59:53 10° NE
STARLINK-1109 4.4 19:51:06 10° WNW 19:55:01 42° SW 19:58:56 10° SE
Cosmos 1943 Rocket 3.6 19:51:47 10° SE 19:55:21 18° E 19:58:58 10° ENE
STARLINK-1231 4.5 19:52:18 10° W 19:56:23 54° NNW 20:00:28 10° ENE
STARLINK-1123 3.8 19:53:15 10° WNW 19:57:24 77° NNE 20:01:33 10° ESE
STARLINK-1246 3.6 19:54:24 10° WSW 19:58:33 80° SSE 20:02:42 10° ENE
Cosmos 2082 Rocket 2.5 19:53:44 10° NNW 19:59:28 72° WSW 20:05:07 10° SSE
STARLINK-1091 4.5 19:56:04 10° WNW 19:59:57 39° SW 20:03:49 10° SSE
IGS 5A 3.8 19:56:06 10° SSE 20:00:07 52° ENE 20:04:11 10° N
Cosmos 1420 Rocket 4.2 19:55:48 10° SSW 20:01:00 76° WNW 20:06:13 10° NNE
Cosmos 1452 Rocket 3.5 19:55:59 10° SSW 20:01:15 79° ESE 20:06:34 10° NNE
Cosmos 332 Rocket 3.9 19:56:42 10° S 20:01:32 63° ESE 20:06:24 10° NNE
BREEZE-M DEB 3.9 19:59:54 10° S 20:01:38 17° SE 20:04:16 10° E
Intercosmos 24 3.7 19:58:41 10° N 20:02:16 87° W 20:06:04 10° S
STARLINK-1097 3.7 19:58:15 10° WNW 20:02:25 80° NNE 20:06:34 10° ESE
Landsat 7 4.0 19:58:27 10° SSE 20:03:07 60° ENE 20:07:50 10° N
STARLINK-1224 3.6 19:59:22 10° WSW 20:03:30 85° SSE 20:07:40 10° ENE
STARLINK-1099 3.7 20:03:13 10° WNW 20:07:24 84° NNE 20:11:33 10° ESE
Cosmos 1461 3.0 20:03:50 10° SSW 20:07:51 54° ESE 20:12:08 10° NE
STARLINK-1225 3.6 20:04:21 10° WSW 20:08:30 89° S 20:12:40 10° ENE
Okean 3 4.0 20:05:47 10° SSW 20:10:02 62° WNW 20:14:20 10° N
SAR-Lupe-2 3.9 20:07:19 10° NNE 20:10:48 45° E 20:14:16 10° S
Cosmos 2369 Rocket 3.7 20:07:40 10° SE 20:11:16 18° E 20:14:52 10° ENE
STARLINK-1104 3.6 20:08:12 10° WNW 20:12:22 88° NE 20:16:31 10° ESE
STARLINK-1230 3.7 20:09:19 10° WSW 20:13:28 87° NNW 20:17:38 10° ENE
STARLINK-1212 4.3 20:10:39 10° WNW 20:13:35 37° N 20:16:31 10° ENE
STARLINK-1105 4.3 20:11:07 10° WNW 20:14:02 37° N 20:16:58 10° ENE
NOSS 2-2 (C) 4.0 20:11:04 10° S 20:14:10 28° ESE 20:17:32 10° ENE
STARLINK-1247 4.3 20:11:59 10° WNW 20:14:56 37° N 20:17:53 10° ENE
STARLINK-1227 4.3 20:12:30 10° WNW 20:15:26 37° N 20:18:21 10° ENE
STARLINK-1226 4.3 20:13:20 10° WNW 20:16:18 37° N 20:19:14 10° ENE
SL-4 R/B 3.8 20:15:21 10° WNW 20:17:06 14° WSW 20:18:47 10° SW
STARLINK-1215 4.3 20:14:15 10° WNW 20:17:12 37° N 20:20:09 10° ENE
STARLINK-1144 3.6 20:13:11 10° WNW 20:17:21 87° SSW 20:21:28 10° ESE
Cosmos 2221 Rocket 4.3 20:13:29 10° SSW 20:17:56 58° WNW 20:22:27 10° N
ATLAS 2AS CENTAUR R/B 4.4 20:13:26 10° SE 20:18:19 18° ESE 20:23:14 10° ENE
STARLINK-1243 3.7 20:14:19 10° WSW 20:18:28 83° NNW 20:22:38 10° ENE
STARLINK-1217 4.3 20:16:04 10° WNW 20:19:01 37° N 20:21:58 10° ENE
SPOT 5 3.6 20:14:18 10° SE 20:19:15 48° ENE 20:24:25 10° N
NOSS 3-2 (A) 4.3 20:12:15 10° NW 20:19:31 65° NE 20:27:47 10° SE
STARLINK-1229 4.3 20:16:59 10° WNW 20:19:56 38° N 20:22:53 10° ENE
STARLINK-1270 4.3 20:17:52 10° WNW 20:20:50 38° N 20:23:47 10° ENE
NOSS 8 (F) 4.1 20:18:15 10° SW 20:21:26 88° SE 20:24:30 10° NE
Meteor 1-13 Rocket 4.4 20:15:57 10° SSW 20:21:35 82° WNW 20:27:24 10° N
STARLINK-1103 3.6 20:18:09 10° WNW 20:22:19 83° SSW 20:26:13 11° ESE
STARLINK-1189 4.3 20:19:40 10° WNW 20:22:38 38° N 20:25:36 10° ENE
STARLINK-1236 3.8 20:19:17 10° WSW 20:23:26 79° NNW 20:27:36 10° ENE
STARLINK-1188 4.3 20:20:35 10° WNW 20:23:33 38° N 20:26:31 10° ENE
ERS-1 Rocket 3.2 20:19:40 11° SSE 20:24:26 59° ENE 20:29:24 10° N
STARLINK-1187 4.2 20:21:41 10° WNW 20:24:38 39° N 20:27:35 10° ENE
STARLINK-1191 4.3 20:23:02 10° WNW 20:25:59 38° N 20:28:55 10° ENE
STARLINK-1221 4.2 20:24:00 10° WNW 20:26:56 38° N 20:29:53 10° ENE
STARLINK-1101 3.6 20:23:08 10° WNW 20:27:17 79° SSW 20:31:00 13° ESE
STARLINK-1222 4.2 20:24:51 10° WNW 20:27:48 38° N 20:30:44 10° ENE
STARLINK-1214 4.2 20:25:44 10° WNW 20:28:41 38° N 20:31:39 10° ENE
Cosmos 1066 Rocket 4.1 20:23:54 10° S 20:29:13 65° E 20:34:32 10° NNE
USA 245 2.9 20:27:56 10° S 20:30:51 55° WSW 20:33:21 10° NNW
USA 238 DEB 4.0 20:24:18 10° NW 20:31:29 71° NE 20:38:25 12° SE
USA 238 4.0 20:24:24 10° NW 20:31:34 70° NE 20:38:32 12° SE
STARLINK-1102 3.6 20:28:08 10° WNW 20:32:16 74° SSW 20:35:48 14° SE
STARLINK-1228 4.1 20:29:48 10° WNW 20:33:12 46° N 20:36:36 10° E
STARLINK-1269 3.9 20:29:17 10° WSW 20:33:25 72° NNW 20:37:34 10° ENE
Okean 1 Rocket 3.1 20:29:19 10° N 20:33:49 84° E 20:37:54 12° S
Cosmos 1805 3.6 20:30:15 10° N 20:34:05 51° ENE 20:37:07 15° SSE
Cosmos 2278 Rocket 3.7 20:29:03 10° WSW 20:34:24 42° NW 20:39:48 10° NNE
TSX-5 4.3 20:28:55 10° SSW 20:34:29 88° ESE 20:38:45 10° NNE
Resurs 01 Rocket 3.3 20:30:36 10° SSW 20:34:32 30° W 20:38:29 10° NNW
Nadezhda 4 Rocket 4.0 20:29:36 10° S 20:35:41 69° E 20:41:46 10° NNE
STARLINK-1235 4.0 20:33:27 10° WNW 20:36:35 44° N 20:39:42 10° E
STARLINK-1111 3.6 20:33:06 10° WNW 20:37:14 70° SSW 20:40:34 15° SE
STARLINK-1200 4.0 20:34:15 10° WSW 20:38:23 69° NNW 20:42:32 10° ENE
Cosmos 1455 Rocket 4.2 20:35:28 10° N 20:39:21 30° ENE 20:42:18 15° SE
STARLINK-1073 3.7 20:38:06 10° WNW 20:42:13 65° SSW 20:45:22 16° SE
SL-8 R/B 3.9 20:37:40 10° W 20:42:23 57° SSW 20:46:16 15° SE
STARLINK-1192 4.0 20:39:16 10° WSW 20:43:24 66° NNW 20:47:32 10° ENE
ATLAS 3B CENTAUR R/B 4.3 20:38:46 10° SW 20:47:04 19° SSW 20:50:57 14° SSE
STARLINK-1121 3.7 20:43:05 10° WNW 20:47:11 61° SSW 20:50:08 18° SE
SL-4 R/B 3.4 20:44:05 10° S 20:47:52 24° SE 20:51:42 10° E
Terra 2.0 20:44:22 16° SSE 20:48:06 60° ENE 20:52:48 10° N
Cosmos 1110 Rocket 3.9 20:43:00 10° SSW 20:48:11 80° ESE 20:53:23 10° NNE
STARLINK-1244 4.1 20:44:15 10° W 20:48:23 64° NNW 20:52:30 10° ENE
Spot 2 Rocket 4.3 20:44:34 10° S 20:49:26 48° W 20:54:20 10° NNW
SPOT 1/Viking Rocket 3.8 20:45:17 11° S 20:50:15 65° WSW 20:55:24 10° NNW
Abrixas rocket 3.1 20:48:10 10° W 20:50:45 27° SSW 20:51:50 21° S
Cosmos 1842 4.2 20:48:52 18° SE 20:51:03 32° E 20:54:32 10° NNE
CARTOSAT-1 3.6 20:47:49 15° SSE 20:51:22 87° WSW 20:55:43 10° NNW
STARLINK-1106 3.8 20:48:05 10° WNW 20:52:10 57° SSW 20:54:56 19° SE
NOSS 8 (H) 4.3 20:49:29 10° SW 20:52:36 75° NW 20:55:42 10° NE
STARLINK-1138 4.2 20:49:16 10° W 20:53:22 61° NNW 20:57:29 10° ENE
STARLINK-1234 3.8 20:51:13 10° WNW 20:54:26 51° NNE 20:57:39 10° E
STARLINK-1112 3.9 20:53:03 10° WNW 20:57:06 53° SSW 20:59:42 20° SE
STARLINK-1143 4.2 20:54:14 10° W 20:58:21 59° NNW 21:02:27 10° ENE
STARLINK-1209 3.6 20:57:11 10° WNW 21:00:27 55° NNE 21:03:27 12° E
STARLINK-1128 4.0 20:58:02 10° WNW 21:02:03 49° SW 21:04:28 22° SSE
STARLINK-1241 4.3 20:59:17 10° W 21:03:23 57° NNW 21:07:29 10° ENE
SWAS 4.4 20:59:37 10° NNW 21:03:57 87° ENE 21:06:45 22° SSE
Cosmos 1331 Rocket 4.0 20:59:49 10° SSW 21:04:59 84° WNW 21:10:13 10° NNE
Aureole 2 Rocket 3.8 21:02:58 10° SW 21:05:49 33° WNW 21:08:34 10° N
STARLINK-1113 4.1 21:03:02 10° WNW 21:07:01 46° SW 21:09:15 23° SSE
Cosmos 1733 3.1 21:03:23 10° N 21:07:13 82° E 21:09:32 23° SSE
STARLINK-1239 4.4 21:04:17 10° W 21:08:22 56° NNW 21:12:27 10° ENE
COSMOS 2455 4.3 21:09:45 16° SE 21:11:36 19° ESE 21:15:37 10° ENE
STARLINK-1119 4.2 21:08:04 10° WNW 21:12:00 43° SW 21:14:04 24° SSE
Cosmos 1378 3.4 21:09:41 13° SSW 21:12:59 66° WNW 21:16:41 10° N
STARLINK-1240 4.4 21:09:16 10° W 21:13:20 54° NNW 21:17:25 10° ENE
Cosmos 1486 Rocket 4.2 21:09:24 10° NNW 21:14:43 68° ENE 21:18:13 21° SE
Cosmos 1302 Rocket 4.0 21:10:13 12° S 21:15:05 67° ESE 21:20:21 10° NNE
USA 215 4.0 21:09:01 10° E 21:15:21 54° NNE 21:21:41 10° WNW
Cosmos 1271 Rocket 3.9 21:14:22 22° SE 21:15:46 27° E 21:19:08 10° NNE
Cosmos 1544 Rocket 3.9 21:12:00 10° N 21:16:15 50° ENE 21:18:39 23° SE
Cosmos 1242 Rocket 3.3 21:15:26 26° SE 21:16:54 38° E 21:20:20 10° NNE
STARLINK-1114 4.3 21:13:03 10° WNW 21:16:56 40° SW 21:18:49 25° SSE
MTI 3.7 21:14:28 10° NNE 21:17:36 62° ESE 21:18:58 29° S
STARLINK-1203 4.5 21:14:07 10° W 21:18:14 53° N 21:22:22 10° ENE
STARLINK-1216 4.5 21:14:16 10° W 21:18:20 53° N 21:22:24 10° ENE
Lacrosse 5 4.2 21:17:17 10° W 21:18:54 11° WSW 21:20:31 10° SW
STARLINK-60 3.7 21:20:11 30° SE 21:20:11 30° SE 21:22:39 10° ENE
Cosmos 1092 Rocket 4.0 21:15:31 12° S 21:21:13 88° W 21:27:25 10° N
STARLINK-1130 (DARKSAT) 4.4 21:18:04 10° WNW 21:21:54 37° SW 21:23:37 25° S
NOSS 2-2 (D) 3.5 21:18:53 10° SW 21:22:27 69° NW 21:26:34 10° NE
CENTAUR R/B 3.2 21:16:07 10° NW 21:24:05 82° NE 21:31:08 18° SE
Cosmos 1707 3.9 21:24:35 23° ESE 21:25:51 28° E 21:29:15 10° NNE
STARLINK-1084 4.5 21:23:04 10° WNW 21:26:51 34° SW 21:28:24 26° S
ATLAS 3B R/B 3.4 21:20:42 10° NW 21:27:15 50° NE 21:33:57 10° ESE
SL-27 R/B 2.5 21:24:18 10° NNW 21:27:54 76° WSW 21:29:28 31° S
NOSS 3-2 (C) 4.1 21:21:50 10° NW 21:29:19 88° SW 21:35:37 20° SE
Cosmos 1766 4.2 21:26:21 10° NNW 21:30:09 43° W 21:32:47 18° SSW
Cosmos 1726 3.7 21:28:12 10° NNE 21:31:19 24° ENE 21:32:50 19° ESE
STARLINK-1254 4.5 21:27:22 10° WNW 21:31:25 50° N 21:35:28 10° E
ALOS 2 4.3 21:30:24 14° ESE 21:33:02 23° ENE 21:36:28 10° NNE
Cosmos 1867 3.9 21:28:48 10° NW 21:34:15 62° NE 21:38:07 19° SE
COSMOS 2487 4.1 21:32:28 10° N 21:35:26 25° ENE 21:37:03 18° E
STARLINK-1231 4.4 21:32:21 10° WNW 21:36:24 51° N 21:40:28 10° E
Cosmos 1943 Rocket 2.2 21:32:49 10° SSW 21:38:23 81° WNW 21:44:02 10° NNE
Cosmos 1992 Rocket 4.4 21:36:08 25° SSE 21:38:41 43° ESE 21:43:37 10° NE
NOSS 3-4 (A) 3.8 21:36:32 22° S 21:39:55 41° ESE 21:45:45 10° NE
NOSS 3-4 (C) 3.8 21:36:40 22° S 21:40:02 41° ESE 21:45:52 10° NE
STARLINK-1232 4.4 21:37:21 10° WNW 21:41:25 52° N 21:45:30 10° E
SeaSat 1 3.1 21:38:13 10° NE 21:42:45 35° ESE 21:44:34 27° SSE
EO 1 Del DPAF 3.8 21:39:47 10° NNE 21:43:24 41° E 21:44:29 32° SE
STARLINK-1208 4.3 21:42:19 10° WNW 21:46:24 54° NNE 21:50:29 10° E
Cosmos 1975 Rocket 3.6 21:44:36 16° SSW 21:48:01 55° WNW 21:52:21 10° N
STARLINK-1212 2.8 21:46:33 10° WNW 21:49:39 80° NNE 21:50:47 36° ESE
STARLINK-1105 2.8 21:47:01 10° WNW 21:50:08 81° NNE 21:51:13 37° ESE
STARLINK-1247 2.8 21:47:53 10° WNW 21:51:01 82° NNE 21:52:06 37° ESE
Meteor 2-10 4.2 21:46:08 10° N 21:51:08 59° ENE 21:53:43 27° SE
STARLINK-1271 4.3 21:47:20 10° WNW 21:51:26 55° NNE 21:55:31 10° E
STARLINK-1227 2.8 21:48:22 10° WNW 21:51:30 82° NNE 21:52:32 38° ESE
Cosmos 292 Rocket 3.7 21:48:20 21° SSW 21:51:38 85° ESE 21:56:32 10° NNE
BREEZE-M DEB (TANK) 3.4 21:38:46 10° WSW 21:52:00 82° SSE 21:55:35 10° E
STARLINK-1226 2.8 21:49:14 10° WNW 21:52:22 83° NNE 21:53:23 39° ESE
BREEZE-M DEB (TANK) 2.8 21:48:56 10° W 21:52:46 88° NNE 21:56:43 10° E
STARLINK-1215 2.8 21:50:08 10° WNW 21:53:16 84° NNE 21:54:16 40° ESE
RESURS DK-1 4.4 21:53:57 13° E 21:53:57 13° E 21:55:53 10° ENE
S3M 4.0 21:48:20 10° N 21:54:31 71° E 21:58:11 26° SSE
Cosmos 2369 Rocket 2.2 21:49:04 11° SSW 21:54:34 84° WNW 22:00:15 10° NNE
STARLINK-1217 2.8 21:51:57 10° WNW 21:55:04 86° NNE 21:56:00 42° ESE
STARLINK-1229 2.8 21:52:51 10° WNW 21:56:00 87° NNE 21:56:54 43° ESE
STARLINK-1154 4.2 21:52:19 10° WNW 21:56:25 57° NNE 22:00:31 10° E
STARLINK-1270 2.8 21:53:45 10° WNW 21:56:53 88° NNE 21:57:45 44° ESE
Aureole 3 Rocket 4.4 21:52:02 10° NNW 21:58:11 78° W 22:03:53 22° S
STARLINK-1189 2.7 21:55:33 10° WNW 21:58:40 89° WSW 21:59:29 47° ESE
STARLINK-1188 2.7 21:56:27 10° WNW 21:59:36 89° SSW 22:00:22 48° ESE
ATLAS CENTAUR R/B 2.0 21:59:35 34° SSE 22:00:25 37° ESE 22:04:16 10° NE
STARLINK-1187 2.7 21:57:33 10° WNW 22:00:40 80° SSW 22:01:14 55° SE
Cosmos 1340 Rocket 3.3 21:57:00 10° N 22:00:59 50° ENE 22:02:31 32° SE
STARLINK-1197 4.2 21:57:17 10° WNW 22:01:23 59° NNE 22:05:30 10° E
STARLINK-1191 2.7 21:58:54 10° WNW 22:02:01 86° SSW 22:02:39 53° ESE
Aureole 3 3.9 21:59:54 10° N 22:02:48 29° ENE 22:03:24 27° E
STARLINK-1221 2.7 21:59:51 10° WNW 22:02:58 85° SSW 22:03:34 54° ESE
STARLINK-1222 2.7 22:00:42 10° WNW 22:03:49 84° SSW 22:04:23 56° SE
Thor Agena Rocket 3.5 21:58:55 10° NNE 22:04:15 76° ESE 22:07:12 27° S
STARLINK-1214 2.7 22:01:36 10° WNW 22:04:42 82° SSW 22:05:15 57° SE
NOSS 7 (A) 4.4 22:04:00 46° SSW 22:04:47 80° SE 22:07:43 10° NE
Cosmos 1025 Rocket 2.9 22:02:58 33° S 22:04:49 80° E 22:09:09 10° NNE
Cosmos 2026 Rocket 4.5 22:00:23 14° SSW 22:05:46 58° WNW 22:12:05 10° N
EXPRESS MD2 4.3 22:01:59 10° W 22:06:05 84° N 22:14:53 10° E
STARLINK-1198 4.1 22:02:16 10° WNW 22:06:23 61° NNE 22:10:30 10° E
Cosmos 1553 Rocket 4.1 22:01:43 10° NNW 22:08:00 73° W 22:11:43 25° S
ATLAS 2AS CENTAUR R/B 3.0 22:00:30 11° SSW 22:08:04 69° SE 22:15:57 10° NE
Cosmos 1656 Rocket 3.6 22:04:50 25° S 22:08:11 68° ESE 22:13:43 10° NNE
BREEZE M DEB (TANK) 1.7 22:05:18 10° W 22:08:18 81° N 22:08:33 65° ENE
Cosmos 1953 2.3 22:05:20 10° N 22:09:21 73° E 22:10:41 40° SSE
BREEZE-M DEB (TANK) 4.1 21:57:41 10° WNW 22:09:54 58° SW 22:11:56 31° SSE
Cosmos 1470 3.3 22:06:37 10° NNW 22:10:22 48° W 22:11:51 30° SSW
STARLINK-1228 3.1 22:07:04 10° WNW 22:10:33 62° SSW 22:11:08 51° SSE
STARLINK-1199 4.0 22:07:16 10° WNW 22:11:24 63° NNE 22:15:21 11° E
APEX 4.3 22:06:47 12° SSW 22:12:46 82° WNW 22:18:03 10° NNE
STARLINK-1235 2.9 22:09:47 10° WNW 22:13:00 61° SSW 22:13:12 59° S
Cosmos 2292 Rocket 3.6 22:13:24 38° SE 22:14:01 42° E 22:17:05 10° NNE
Cosmos 968 Rocket 3.9 22:10:11 10° NNW 22:15:10 50° WSW 22:17:31 28° SSW
STARLINK-1210 4.0 22:12:14 10° WNW 22:16:22 65° NNE 22:20:07 12° E
Cosmos 1455 Rocket 4.5 22:13:22 10° NNW 22:17:07 29° W 22:19:25 18° SW
Cosmos 1655 Rocket 4.0 22:15:01 26° S 22:18:43 85° E 22:25:02 10° N
SL-4 R/B 1.9 22:20:18 35° NNE 22:20:18 35° NNE 22:21:52 10° N
STARLINK-1219 3.9 22:17:13 10° WNW 22:21:21 68° NNE 22:24:53 14° ESE
ATLAS 5 CENTAUR R/B 1.3 22:21:46 40° SSW 22:22:45 62° SE 22:24:59 10° NE
Cosmos 1758 4.2 22:20:01 10° NNW 22:23:51 41° W 22:25:25 28° SW
STARLINK-52 4.0 22:26:27 33° E 22:26:27 33° E 22:28:30 10° ENE
Terra 3.8 22:23:15 11° SW 22:26:15 19° W 22:29:38 10° NW
STARLINK-1211 3.8 22:22:13 10° WNW 22:26:22 71° NNE 22:29:40 16° ESE
Cosmos 2228 3.6 22:22:57 10° N 22:27:03 45° ENE 22:28:36 31° SE
SL-4 R/B 2.3 22:22:18 10° WSW 22:27:07 76° SSE 22:31:57 10° ENE
Cosmos 1726 Rocket 4.4 22:23:44 10° N 22:27:48 38° ENE 22:29:31 27° ESE
Meteor 2-15 4.4 22:21:42 10° N 22:27:52 78° E 22:31:06 30° SSE
STARLINK-1234 3.7 22:27:37 10° WNW 22:30:16 39° WSW 22:30:16 39° WSW
STARLINK-1245 3.7 22:27:11 10° WNW 22:31:20 74° NNE 22:34:26 17° ESE
In-Cosmos 22 4.0 22:30:05 32° S 22:32:33 78° E 22:37:51 10° NNE
STARLINK-1233 3.7 22:32:08 10° WNW 22:36:18 78° NNE 22:39:12 19° ESE
STARLINK-1209 4.0 22:33:49 10° WNW 22:36:13 32° WSW 22:36:13 32° WSW
Cosmos 2266 Rocket 3.9 22:33:43 29° S 22:36:59 86° E 22:43:04 10° N
STARLINK-1204 3.6 22:37:08 10° WNW 22:41:17 81° NNE 22:43:59 21° ESE
SJ 16-02 3.7 22:40:08 10° N 22:43:14 18° NE 22:46:19 10° E
STARLINK-1238 3.6 22:42:08 10° WNW 22:46:18 85° NNE 22:48:47 23° ESE
Meteor 2-15 Rocket 4.4 22:41:37 10° N 22:47:48 87° E 22:50:55 31° S
Cosmos 1536 Rocket 4.4 22:45:44 24° SW 22:47:52 43° WNW 22:52:05 10° N
Cosmos 1674 2.6 22:48:20 52° SSE 22:49:07 73° E 22:52:54 10° NNE
Helios 1B rocket 4.2 22:46:12 10° NE 22:49:13 19° E 22:50:09 18° ESE
STARLINK-1201 3.5 22:47:06 10° WNW 22:51:16 90° NNE 22:53:33 26° ESE
Cosmos 1271 Rocket 4.5 22:49:29 16° WSW 22:51:43 27° WNW 22:55:06 10° N
STARLINK-1240 4.5 22:49:18 10° WNW 22:53:22 51° N 22:57:25 10° E
STARLINK-60 3.5 22:52:37 10° W 22:55:46 59° NNW 22:58:56 10° ENE
STARLINK-1206 3.5 22:52:06 10° WNW 22:56:16 86° SSW 22:58:21 29° ESE
COSMOS 2455 2.8 22:52:50 23° SW 22:56:45 88° NW 23:02:50 10° NE
Cosmos 2219 4.0 22:52:31 10° NNW 22:58:01 48° NE 23:02:18 16° SE
USA 215 3.2 22:52:57 17° SE 22:58:13 78° SW 23:04:48 10° WNW
STARLINK-1216 4.4 22:54:17 10° WNW 22:58:21 52° N 23:02:25 10° E
STARLINK-1203 4.4 22:54:22 10° WNW 22:58:30 53° N 23:02:37 10° E
STARLINK-1350 4.5 23:01:49 30° ESE 23:01:49 30° ESE 23:04:23 10° ENE
STARLINK-1205 3.5 22:57:04 10° WNW 23:01:14 82° SSW 23:03:07 31° ESE
Cosmos 2297 Rocket 3.2 22:56:52 10° NNW 23:02:16 43° NE 23:07:00 13° ESE
Helios 1A 2.9 23:01:35 44° SSE 23:02:54 89° ENE 23:07:07 10° NNW
STARLINK-1237 4.4 22:59:17 10° WNW 23:03:21 53° N 23:07:26 10° E
Lacrosse 4 Rocket 3.9 23:02:30 10° N 23:05:46 20° NE 23:08:58 10° E
STARLINK-1218 3.5 23:02:04 10° WNW 23:06:13 77° SSW 23:07:55 34° SE
Cosmos 1726 3.5 23:03:18 10° NNW 23:06:30 27° W 23:07:20 25° WSW
STARLINK-1368 4.2 23:08:27 35° ESE 23:08:27 35° ESE 23:11:20 10° ENE
Cosmos 1174 4.0 23:06:36 33° WSW 23:07:50 55° NW 23:11:39 10° NNE
STARLINK-1202 4.3 23:04:16 10° WNW 23:08:21 55° NNE 23:12:26 10° E
ALOS 2 3.1 23:07:47 35° SW 23:09:06 46° W 23:13:21 10° NNW
Timation 2 Rocket 3.9 23:03:24 10° NNW 23:09:45 80° WSW 23:12:54 30° SSE
Cosmos 2058 Rocket 3.2 23:05:55 10° N 23:10:22 68° ENE 23:11:58 38° SSE
COSMOS 2487 3.9 23:07:32 10° NW 23:10:26 25° WSW 23:10:32 25° WSW
STARLINK-1254 3.5 23:07:02 10° WNW 23:11:11 73° SSW 23:12:41 38° SE
STARLINK-1369 4.0 23:11:47 38° ESE 23:11:47 38° ESE 23:14:50 10° ENE
CENTAUR R/B 4.1 23:07:23 10° NW 23:14:25 33° WSW 23:18:17 23° SSW
STARLINK-1372 3.9 23:15:07 41° SE 23:15:07 41° SE 23:18:21 10° ENE
STARLINK-1231 3.5 23:12:01 10° WNW 23:16:09 68° SSW 23:17:27 41° SE
Meteor 2-5 Rocket 3.6 23:14:12 34° S 23:16:43 83° E 23:22:23 10° NNE
ATLAS 3B R/B 3.0 23:11:31 10° NW 23:18:02 49° WSW 23:21:09 30° S
STARLINK-1378 3.8 23:18:28 44° SE 23:18:28 44° SE 23:21:51 10° ENE
STARLINK-1246 4.2 23:14:16 10° WNW 23:18:22 58° NNE 23:22:28 10° E
SL-14 R/B 3.4 23:19:11 46° SE 23:20:00 58° E 23:23:48 10° NNE
SeaSat 1 3.5 23:15:41 10° NNE 23:20:19 42° NW 23:24:20 13° WSW
Cosmos 1606 Rocket 4.0 23:16:10 10° NNW 23:20:21 50° W 23:21:36 37° SW
FALCON 9 DEB 3.0 23:20:07 56° WSW 23:20:46 86° SSE 23:24:13 10° ENE
STARLINK-1232 3.5 23:17:01 10° WNW 23:21:08 64° SSW 23:22:15 44° SSE
STARLINK-1379 3.6 23:21:51 47° SE 23:21:51 47° SE 23:25:23 10° ENE
STARLINK-1329 3.6 23:23:14 49° SE 23:23:14 49° SE 23:26:51 10° ENE
STARLINK-1224 4.1 23:19:14 10° WNW 23:23:21 60° NNE 23:27:27 10° E
Meteor 2-21 4.4 23:20:59 32° S 23:24:03 82° E 23:30:18 10° NNE
STARLINK-29 3.3 23:24:02 26° W 23:25:39 62° NNW 23:28:50 10° ENE
STARLINK-1208 3.6 23:21:59 10° WNW 23:26:05 60° SSW 23:27:00 46° SSE
SL-16 R/B 4.3 23:21:28 10° ESE 23:26:25 26° ENE 23:31:24 10° N
STARLINK-1362 3.5 23:26:40 51° SSE 23:26:44 51° SSE 23:30:26 10° ENE
ATLAS CENTAUR R/B 1.6 23:26:09 10° NW 23:28:20 56° NE 23:32:24 10° ESE
STARLINK-1225 4.1 23:24:14 10° WNW 23:28:22 62° NNE 23:32:28 10° E
STARLINK-1373 3.4 23:30:05 53° SSE 23:30:17 54° SSE 23:34:03 10° ENE
NOSS 3-4 (A) 4.2 23:24:49 10° WSW 23:30:41 51° NW 23:37:02 10° NE
NOSS 3-4 (C) 4.2 23:24:54 10° WSW 23:30:47 52° NW 23:37:09 10° NE
STARLINK-1271 3.6 23:27:00 10° WNW 23:31:04 56° SSW 23:31:49 48° S
RESURS DK-1 2.4 23:29:48 38° SW 23:31:17 73° WNW 23:35:27 10° NNE
STARLINK-1365 3.4 23:31:12 54° S 23:31:32 57° SSE 23:35:18 10° ENE
STARLINK-1230 4.0 23:29:12 10° WNW 23:33:21 64° NNE 23:37:28 10° E
STARLINK-1390 3.4 23:33:35 55° S 23:33:54 57° SSE 23:37:40 10° ENE
Cosmos 1697 Rocket 4.3 23:32:47 17° SE 23:35:07 22° E 23:39:21 10° NE
Cosmos 2084 3.4 23:33:37 36° SW 23:35:24 89° SE 23:39:55 10° NE
STARLINK-1154 3.7 23:32:00 10° WNW 23:36:02 52° SW 23:36:35 48° S
Cosmos 1626 2.0 23:36:00 54° SSW 23:36:47 85° W 23:40:32 10° N
BREEZE-M R/B 3.6 23:31:44 17° SW 23:36:51 51° SSE 23:40:28 10° E
STARLINK-1243 3.9 23:34:12 10° WNW 23:38:21 67° NNE 23:42:28 10° ESE
Okean 1-7 Rocket 3.6 23:37:39 40° SSW 23:39:14 78° W 23:43:48 10° N
Cosmos 2227 Rocket 2.5 23:33:37 10° NNW 23:39:19 66° ENE 23:43:29 19° SE
ATLAS CENTAUR R/B 2.8 23:35:43 12° WSW 23:39:21 35° NW 23:43:06 10° NNE
Cosmos 2369 Rocket 4.5 23:35:19 10° W 23:39:28 20° NW 23:43:38 10° N
STARLINK-1197 3.8 23:36:58 10° WNW 23:40:59 49° SW 23:41:21 47° SSW
CZ-4 R/B 3.8 23:37:14 10° NNE 23:42:02 72° ESE 23:43:50 37° S
STARLINK-1236 3.9 23:39:10 10° WNW 23:43:20 70° NNE 23:47:27 10° ESE
STARLINK-1198 3.8 23:41:57 10° WNW 23:45:55 45° SW 23:46:07 45° SSW
Cosmos 1602 Rocket 4.2 23:47:23 31° SE 23:48:57 46° E 23:53:06 10° NNE
Landsat 4 4.3 23:46:17 10° N 23:49:52 46° WNW 23:51:00 34° WSW
STARLINK-1199 4.0 23:46:59 10° WNW 23:50:55 42° SW 23:50:56 42° SW
STARLINK-1269 3.7 23:49:09 10° WNW 23:53:18 76° NNE 23:57:27 10° ESE
Meteor 2-21 Rocket 4.5 23:50:06 30° SSW 23:53:19 80° W 23:59:34 10° N
STARLINK-1210 4.1 23:51:58 10° WNW 23:55:41 39° SW 23:55:41 39° SW
